Location: Marsån
(66.4167°N, 22.2833°E)
Time: 09:35:29
(UTC+00:00)

Cosmos 2237 Rocket - Pass Details

Date: 24 February 2024
Orbit: 833 x 851 km, 71.0° (Epoch: 20 April)

Event Time Altitude Azimuth Distance (km) Brightness Sun altitude
Rises 19:12:07 0° 305° (NW) 3,403 6.8 -22.8°
Reaches altitude 10° 19:14:33 10° 306° (NW) 2,469 5.7 -23.0°
Maximum altitude 19:20:14 88° 220° (SW) 854 2.1 -23.5°
Enters shadow 19:21:28 57° 131° (SE) 990 2.2 -23.6°
